sat.trackr.live / text

‹ back to catalog

2025-313BD

NORAD 67299 · 2025-313BD

PAYLOAD ACTIVE UNKNOWN

§ Identity

Operator
Country
TBD
Launch date
2025-12-28
Launch site
VOSTO
Launch vehicle
Mass (kg)
RCS (m²)

External: N2YO · Heavens-Above · Gunter

§ Orbital elements

Epoch: 2026-05-25T04:28:17.990976Z

Period
93.23 min
Inclination
97.3845°
Eccentricity
0.0005141
Mean motion
15.44529657 rev/d
Perigee alt
429.3 km
Apogee alt
436.3 km
Semi-major
6,810.9 km
B*
2.9912e-3
RAAN
222.2791°
Arg perigee
110.6276°
Mean anomaly
249.5524°
Rev number
2,259

§ Raw data

2025-313BD1 67299U 25313BD  26145.18631934  .00141102  00000+0  29912-2 0  99932 67299  97.3845 222.2791 0005141 110.6276 249.5524 15.44529657 22597

JSON: /api/v1/satellites/67299 · /tle

For live sub-satellite position, see the globe view (requires WebGL).

§ Visibility from observer

Set your observer location to see the next 7 days of passes ≥ 10°. The values pass through the URL so the page stays shareable.

No JS? Fill the form by hand. The geolocation button needs JavaScript.